FW1964 Weather Reports


time (UTC)temp
C
wind
direction
speed
KPH
gust
KPH
rain 1hr
cm
rain 24hr
cm
rain mn
cm
humidity
%
barometer
mb
20260507014545 16 265 0.0 14.5 0.00 0.00 0.00 58 1019.7
20260507013042 17 236 1.6 12.9 0.00 0.00 0.00 57 1019.7
20260507011545 17 232 6.4 16.1 0.00 0.00 0.00 56 1019.5
20260507010050 17 204 3.2 16.1 0.00 0.00 0.00 56 1019.5
20260507004540 17 213 6.4 16.1 0.00 0.00 0.00 55 1019.4
20260507003040 18 192 4.8 12.9 0.00 0.00 0.00 54 1019.4
20260507001546 18 236 6.4 19.3 0.00 0.00 0.00 54 1019.3
20260507000038 18 234 3.2 14.5 0.00 0.00 0.00 53 1019.2
20260506234538 18 234 9.7 25.7 0.00 0.00 0.00 54 1019.1
20260506233041 19 252 12.9 24.1 0.00 0.00 0.00 51 1018.9
20260506231538 20 219 4.8 24.1 0.00 0.00 0.00 51 1018.9
20260506230042 20 238 6.4 19.3 0.00 0.00 0.00 49 1019.0
20260506224534 21 156 6.4 16.1 0.00 0.00 0.00 48 1019.2
20260506223032 21 193 8.0 16.1 0.00 0.00 0.00 47 1019.2
20260506221530 21 214 4.8 16.1 0.00 0.00 0.00 48 1019.4
20260506220032 21 165 4.8 16.1 0.00 0.00 0.00 47 1019.6
20260506214528 20 171 3.2 17.7 0.00 0.00 0.00 49 1019.8
20260506213027 20 221 11.3 22.5 0.00 0.00 0.00 48 1019.9
20260506211530 20 261 8.0 19.3 0.00 0.00 0.00 50 1019.9
20260506210025 20 213 9.7 19.3 0.00 0.00 0.00 49 1020.0
20260506204525 20 225 9.7 17.7 0.00 0.00 0.00 48 1020.0
20260506203026 20 180 9.7 20.9 0.00 0.00 0.00 48 1020.0
20260506201524 20 211 6.4 19.3 0.00 0.00 0.00 48 1020.0
20260506200018 20 278 8.0 14.5 0.00 0.00 0.00 48 1020.0
20260506194516 21 194 8.0 16.1 0.00 0.00 0.00 47 1020.0
20260506193013 21 238 4.8 14.5 0.00 0.00 0.00 46 1020.1
20260506191512 21 343 1.6 12.9 0.00 0.00 0.00 41 1020.2
20260506190009 21 319 1.6 8.0 0.00 0.00 0.00 43 1020.5
20260506184517 20 341 4.8 14.5 0.00 0.00 0.00 44 1020.5
20260506183006 20 53 3.2 8.0 0.00 0.00 0.00 46 1020.6
20260506181503 20 312 3.2 11.3 0.00 0.00 0.00 48 1020.6
20260506180101 19 5 4.8 12.9 0.00 0.00 0.00 49 1020.5
20260506174601 18 313 1.6 9.7 0.00 0.00 0.00 50 1020.6
20260506173125 18 344 3.2 9.7 0.00 0.00 0.00 50 1020.6
20260506171553 18 292 1.6 8.0 0.00 0.00 0.00 51 1020.5
20260506170051 17 355 3.2 8.0 0.00 0.00 0.00 51 1020.8
20260506164548 17 44 3.2 8.0 0.00 0.00 0.00 52 1020.8
20260506163050 16 51 1.6 6.4 0.00 0.00 0.00 54 1020.9
20260506161546 16 333 1.6 8.0 0.00 0.00 0.00 55 1020.9
20260506160040 15 319 3.2 8.0 0.00 0.00 0.00 55 1021.1
20260506154536 14 293 0.0 0.0 0.00 0.00 0.00 55 1021.0
20260506153040 13 297 0.0 0.0 0.00 0.00 0.00 54 1021.1
20260506151529 12 173 0.0 0.0 0.00 0.00 0.00 55 1021.2
20260506150029 11 173 0.0 0.0 0.00 0.00 0.00 56 1021.3
20260506144549 10 176 0.0 0.0 0.00 0.00 0.00 57 1021.4
20260506143027 10 176 0.0 0.0 0.00 0.00 0.00 57 1021.3
20260506141525 10 176 0.0 0.0 0.00 0.00 0.00 57 1021.3
20260506140038 10 175 0.0 0.0 0.00 0.00 0.00 58 1021.1
20260506134530 10 176 0.0 0.0 0.00 0.00 0.00 58 1020.9
20260506133022 10 184 0.0 0.0 0.00 0.00 0.00 58 1020.8
20260506131521 10 184 0.0 0.0 0.00 0.00 0.00 58 1020.7
20260506130017 9 184 0.0 0.0 0.00 0.00 0.00 58 1020.5
20260506124514 9 184 0.0 0.0 0.00 0.00 0.00 58 1020.3
20260506123015 9 175 0.0 0.0 0.00 0.00 0.00 59 1020.3
20260506121512 9 175 0.0 0.0 0.00 0.00 0.00 59 1020.2
20260506120022 9 175 0.0 0.0 0.00 0.00 0.00 59 1020.2
20260506114518 9 175 0.0 0.0 0.00 0.00 0.00 58 1020.2
20260506113008 9 175 0.0 0.0 0.00 0.00 0.00 58 1020.1
20260506111507 9 175 0.0 0.0 0.00 0.00 0.00 59 1020.0
20260506110007 9 175 0.0 0.0 0.00 0.00 0.00 59 1020.0
20260506104506 9 175 0.0 0.0 0.00 0.00 0.00 59 1020.0
20260506103004 9 175 0.0 0.0 0.00 0.00 0.00 60 1020.0
20260506101504 9 173 0.0 0.0 0.00 0.00 0.00 60 1020.1
20260506100006 9 177 0.0 0.0 0.00 0.00 0.00 60 1020.1
20260506094605 10 184 0.0 0.0 0.00 0.00 0.00 60 1020.1
20260506093059 10 169 0.0 0.0 0.00 0.00 0.00 60 1020.2
20260506091558 10 150 0.0 0.0 0.00 0.00 0.00 60 1020.2
20260506090056 10 61 0.0 0.0 0.00 0.00 0.00 60 1020.1
20260506084555 10 149 0.0 0.0 0.00 0.00 0.00 61 1020.1
20260506083056 11 59 0.0 0.0 0.00 0.00 0.00 62 1020.0
20260506081603 11 61 0.0 0.0 0.00 0.00 0.00 63 1020.1
20260506073041 12 66 0.0 1.6 0.00 0.00 0.00 62 1019.7
20260506071543 13 71 0.0 0.0 0.00 0.00 0.00 62 1019.7
20260506061536 13 71 0.0 0.0 0.00 0.00 0.00 61 1019.4
20260506050131 13 71 0.0 0.0 0.00 0.00 0.00 62 1019.0
20260506044542 14 78 0.0 0.0 0.00 0.00 0.00 62 1018.9
20260506043025 14 175 0.0 0.0 0.00 0.00 0.00 62 1018.9
20260506041522 14 174 0.0 1.6 0.00 0.00 0.00 61 1018.8
20260506040022 14 221 0.0 4.8 0.00 0.00 0.00 61 1018.6
20260506034520 14 172 0.0 0.0 0.00 0.00 0.00 61 1018.5
20260506033026 14 165 0.0 3.2 0.00 0.00 0.00 61 1018.2
20260506031616 14 184 0.0 3.2 0.00 0.00 0.00 60 1018.0
20260506030015 14 216 0.0 4.8 0.00 0.00 0.00 60 1017.8
20260506024519 14 225 0.0 8.0 0.00 0.00 0.00 59 1017.8
20260506023012 15 195 3.2 6.4 0.00 0.00 0.00 58 1017.9
20260506021514 15 204 3.2 12.9 0.00 0.00 0.00 57 1017.8
20260506020016 15 231 1.6 8.0 0.00 0.00 0.00 55 1017.6